Miscellaneous Local Product
Issued by NWS Hastings, NE

Home | Current Version | Previous Version | Text Only | Print | Product List | Glossary On
Versions: 1 2 3 4 5 6 7 8 9 10 11 12 13 14 15 16 17 18 19 20 21 22 23 24 25 26 27 28 29 30 31 32 33 34 35 36 37 38 39 40 41 42 43 44 45 46 47 48 49 50
000
AXUS43 KGID 242102
MISGRI

GID CWA HOURLY WEATHER ROUNDUP
NATIONAL WEATHER SERVICE HASTINGS NE
400 PM CDT THU JUL 24 2014

NOTE: "FAIR" INDICATES FEW OR NO CLOUDS BELOW 12,000 FEET WITH NO
SIGNIFICANT WEATHER AND/OR OBSTRUCTIONS TO VISIBILITY.

...SOUTH CENTRAL NEBRASKA...

CITY           SKY/WX    TMP DP  RH WIND       PRES   REMARKS
GRAND ISLAND   SUNNY     87  68  52 S24G33    29.93F HX  90
HASTINGS       SUNNY     88  64  44 S22G31    29.94F
KEARNEY        SUNNY     91  70  49 SE22G31   29.93F HX  97
ORD            SUNNY     86  68  54 S25G38    29.88F
YORK           SUNNY     84  66  54 SE23      29.94F
AURORA         SUNNY     86  66  51 S21G28    29.93F
LEXINGTON      SUNNY     93  71  49 SE22G29   29.90F HX 100
HOLDREGE       SUNNY     93  66  41 S17G28    29.92F HX  95
HEBRON         SUNNY     88  61  40 S22G29    29.96F

...NEBRASKA PANHANDLE...

CITY           SKY/WX    TMP DP  RH WIND       PRES   REMARKS
CHADRON        MOSUNNY  108  44  11 W20G26    29.76F HX 103
ALLIANCE       SUNNY    103  44  13 NW7G20    29.86F HX  98
SCOTTSBLUFF    MOSUNNY   99  50  19 NW7       29.88F HX  96
SIDNEY         PTSUNNY   90  47  22 NW14G22   29.97R

...WESTERN AND NORTH CENTRAL NEBRASKA...

CITY           SKY/WX    TMP DP  RH WIND       PRES   REMARKS
VALENTINE      SUNNY    103  66  30 S26G33    29.75F HX 107
AINSWORTH      SUNNY     92  66  41 S23G33    29.82F HX  95
ONEILL         MOSUNNY   88  65  45 S22G33    29.85F HX  90
BROKEN BOW     SUNNY     91  70  49 S24G36    29.89F HX  96
IMPERIAL       SUNNY    103  42  12 S15       29.87F HX  98
NORTH PLATTE   SUNNY     97  68  38 SE14G23   29.85F HX 102
MCCOOK         SUNNY    102  61  25 S18G26    29.86F HX 103

...EASTERN NEBRASKA...

CITY           SKY/WX    TMP DP  RH WIND       PRES   REMARKS
NORFOLK        MOSUNNY   85  64  49 SE21G29   29.92F
SO SIOUX CITY  PTSUNNY   77  63  61 S16G32    29.94F
TEKAMAH        MOSUNNY   84  63  49 SE22G30   29.97F
COLUMBUS       MOSUNNY   84  64  51 S18G24    29.95S
ALBION         MOSUNNY   84  65  52 S20G31    29.92F
OMAHA EPPLEY   MOSUNNY   83  61  47 SE21      30.01S
OFFUTT AFB     MOSUNNY   84  64  51 SE17G23   30.02R
MILLARD        MOSUNNY   83  65  55 SE13G18   30.00F
LINCOLN        SUNNY     89  63  41 S16G28    29.97F HX  90
NEBRASKA CITY  SUNNY     82  61  49 S15G23    30.01F
BEATRICE       SUNNY     85  65  51 S17G23    29.97F
FALLS CITY     SUNNY     83  62  49 SE16G23   30.01F

...NORTHERN KANSAS...

CITY           SKY/WX    TMP DP  RH WIND       PRES   REMARKS
GOODLAND       SUNNY    100  45  15 S17G29    29.94F HX  96
HILL CITY      SUNNY     99  66  33 S18G28    29.90F HX 103
NORTON         CLEAR     99  57  25 SE20G29   29.89F HX  97
PHILLIPSBURG   SUNNY     97  66  36 SE16G26   29.91F HX 100
SMITH CENTER   SUNNY     95  64  36 SE23G29   29.93F HX  97
HAYS           SUNNY     75  70  83 S25       29.94F
RUSSELL        SUNNY     92  70  48 S25G31    29.94F HX  97
CONCORDIA      SUNNY     88  67  49 SE21G31   29.97F HX  91
SALINA         SUNNY     95  66  38 SE25G31   29.97F HX  98
TOPEKA         SUNNY     88  60  38 SE16      30.02F



USA.gov is the U.S. government's official web portal to all federal, state and local government web resources and services.